#timestamp,LO_Frequency,Hit,StdDev 
1710921615.4,286046999.8,N
1710921635.2,286047002.2,N
1710921655.0,286046999.7,N
1710921655.9,286046999.7,N
1710921675.8,286047002.6,N
1710921695.6,286047001.8,N
1710921715.4,286047002.5,N
1710921735.3,286047002.5,N
1710921755.1,286046999.8,N
1710921775.9,286047000.0,N
1710921795.7,286047000.0,N
1710921815.5,286047002.1,N
1710921835.4,286047002.8,N
1710921855.2,286047000.4,N
1710921875.0,286047001.1,N
1710921875.9,286047001.1,N
1710921895.8,286046998.6,N
1710921915.6,286046998.2,N
1710921935.5,286046998.2,N
1710921955.3,286046998.3,N
1710921975.1,286047001.2,N
1710921995.9,286047000.7,N
1710922015.7,286046998.1,N
1710922035.6,286046998.6,N
1710922055.4,286047000.9,N
1710922075.2,286047000.9,N
1710922095.1,286047001.1,N
1710922096.0,286047001.1,N
1710922115.8,286046998.4,N
1710922135.6,286047000.8,N
1710922155.5,286047000.6,N
1710922175.3,286047000.2,N
1710922195.2,286047000.7,N
1710922215.9,286047000.5,N
1710922235.7,286047000.9,N
1710922255.6,286047000.9,N
1710922275.4,286046999.1,N
1710922295.3,286046998.7,N
1710922315.1,286047000.8,N
1710922316.0,286047000.8,N
1710922335.8,286047000.6,N
1710922355.7,286047002.2,N
1710922375.5,286047002.8,N
1710922395.4,286047002.5,N
1710922415.2,286047001.9,N
1710922435.0,286047002.7,N
1710922435.9,286047002.7,N
1710922455.8,286047002.6,N
1710922475.6,286047002.2,N
1710922495.5,286047000.3,N
1710922515.3,286047002.4,N
1710922535.1,286047002.2,N
1710922555.9,286047000.4,N
1710922575.7,286047000.3,N
1710922595.5,286046999.8,N
1710922615.4,286047000.6,N
1710922635.2,286046998.2,N
1710922655.1,286046998.5,N
1710922656.0,286046998.5,N
1710922675.8,286047001.1,N
1710922695.7,286047000.0,N
1710922715.5,286046998.2,N
1710922735.3,286047002.0,N
1710922755.2,286047001.9,N
1710922775.0,286047002.5,N
1710922775.9,286047002.5,N
1710922795.7,286047002.1,N
1710922815.6,286047002.2,N
1710922835.4,286047004.3,N
1710922855.3,286047003.9,N
1710922875.1,286047001.7,N
1710922895.8,286046999.7,N
1710922915.7,286047001.6,N
1710922935.5,286047004.3,N
1710922955.4,286047001.9,N
1710922975.2,286047001.6,N
1710922995.0,286046999.7,N
1710922995.9,286046999.7,N
1710923015.8,286047002.5,N
1710923035.6,286047002.8,N
1710923055.5,286047001.4,N
1710923075.3,286047001.4,N
1710923095.1,286046999.8,N
1710923115.9,286047002.1,N
1710923135.7,286047002.4,N
1710923155.5,286047002.7,N
1710923175.4,286047002.3,N
1710923195.2,286047002.6,N
1710923215.1,286047002.6,N
1710923216.0,286047002.6,N
1710923235.8,286047002.6,N
1710923255.6,286047002.7,N
1710923275.5,286047002.3,N
1710923295.3,286047000.0,N
1710923315.2,286047000.8,N
1710923335.9,286047000.7,N
1710923355.7,286047000.5,N
1710923375.6,286047002.4,N
1710923395.4,286047000.1,N
1710923415.2,286047000.6,N
1710923435.1,286046999.7,N
1710923436.0,286046999.7,N
1710923455.8,286047000.0,N
1710923475.7,286047000.6,N
1710923495.5,286046999.9,N
1710923515.3,286047000.2,N
1710923535.2,286047000.4,N
1710923555.0,286047000.9,N
1710923555.9,286047000.9,N
1710923575.8,286047000.0,N
1710923595.6,286047001.4,N
1710923615.4,286047001.4,N
1710923635.3,286047001.5,N
1710923655.1,286047001.9,N
1710923675.9,286047002.7,N
1710923695.7,286047001.9,N
1710923715.5,286046999.8,N
1710923735.4,286047000.7,N
1710923755.2,286046999.8,N
1710923775.0,286047000.8,N
1710923775.9,286047000.8,N
1710923795.8,286046999.7,N
1710923815.6,286046999.8,N
1710923835.5,286047001.7,N
1710923855.3,286047004.3,Y
1710923875.1,286047004.4,P
1710923895.9,286047002.3,N
1710923915.7,286047001.3,N
1710923935.5,286046999.7,N
1710923955.4,286047000.3,N
1710923975.2,286047000.8,N
1710923995.1,286047000.5,N
1710923996.0,286047000.5,N
1710924015.8,286047000.2,N
1710924035.6,286047002.3,N
1710924055.5,286047002.3,N
1710924075.3,286047002.0,N
1710924095.1,286046999.8,N
1710924115.9,286047001.6,N
1710924135.7,286047004.0,Y
1710924155.6,286047002.8,P
1710924175.4,286046999.7,N
1710924195.2,286047000.1,N
1710924215.1,286047002.0,N
1710924216.0,286047002.0,N
1710924235.8,286047002.3,N
1710924255.7,286047002.0,N
1710924275.5,286047002.3,N
1710924295.3,286047004.0,Y
1710924315.2,286046998.5,P
1710924335.0,286047000.7,N
1710924335.9,286047000.7,N
1710924355.8,286046998.2,N
1710924375.6,286046999.9,N
1710924395.4,286047000.6,N
1710924415.3,286047000.3,N
1710924435.1,286047000.2,N
1710924455.8,286047000.7,N
1710924475.7,286046999.8,N
1710924495.5,286046999.7,N
1710924515.4,286047000.4,N
1710924535.2,286046999.9,N
1710924555.0,286047000.5,N
1710924555.9,286047000.5,N
1710924575.8,286047000.6,N
1710924595.6,286047001.1,N
1710924615.5,286046998.4,N
1710924635.3,286046998.5,N
1710924655.1,286046998.5,N
1710924675.9,286047001.2,N
1710924695.7,286047001.1,N
1710924715.6,286046998.9,N
1710924735.4,286046999.5,N
1710924755.2,286046999.4,N
1710924775.1,286046999.6,N
1710924776.0,286046999.6,N
1710924795.8,286046999.1,N
1710924815.6,286046997.3,N
1710924835.5,286046995.3,Y
1710924855.3,286046997.9,P
1710924875.2,286046997.3,N
1710924895.0,286046997.3,N
1710924895.9,286046997.3,N
1710924915.7,286046997.1,N
1710924935.6,286046997.9,N
1710924955.4,286046998.4,N
1710924975.3,286046999.3,N
1710924995.1,286047001.2,N
1710924996.0,286047001.2,N
1710925015.8,286046999.9,N
1710925035.7,286047001.2,N
1710925055.5,286047000.8,N
1710925075.3,286047000.1,N
1710925095.2,286047000.1,N
1710925115.0,286047001.2,N
1710925115.9,286047001.2,N
1710925135.8,286046996.9,N
1710925155.6,286046996.5,N
1710925175.4,286046999.0,N
1710925195.3,286046999.1,N
